Tracking 19969 objects as of 12-Nov-2019
Live streaming from Space Station
objects crossing your sky now
Track the group of recently launched Starlink satellites

RITE TARGET 2

Track RITE TARGET 2 now!
10-day predictions
RITE TARGET 2 is classified as:


NORAD ID: 28455
Int'l Code: 2002-056G
Perigee: 782.7 km
Apogee: 798.7 km
Inclination: 98.4 °
Period: 100.5 minutes
Semi major axis: 7161 km
RCS: 0.0143 m2 (small)
Launch date: December 14, 2002
Source: Japan (JPN)
Launch site: TANEGASHIMA SPACE CENTER (TNSTA)
aabbcc
Your satellite tracking list
Your tracking list is empty




NASA's NSSDC Master Catalog

Two Line Element Set (TLE):
1 28455U 02056G   19314.63963215  .00000112  00000-0  57201-4 0  9993
2 28455  98.4487 266.9260 0011177 133.4149 226.7968 14.32455524827663
Source of the keplerian elements: AFSPC